Location: Batang Balui
(2.7000°N, 113.7833°E)
Time: 23:04:48
(UTC+00:00)

Cosmos 921 Rocket - Pass Details

Date: 03 December 2021
Orbit: 571 x 631 km, 75.8° (Epoch: 27 January)

Event Time Altitude Azimuth Distance (km) Brightness Sun altitude
Rises 10:37:32 0° 198° (SSW) 2,783 7.0 -6.3°
Reaches altitude 10° 10:39:47 10° 202° (SSW) 1,878 6.2 -6.8°
Maximum altitude 10:43:52 57° 280° (W) 673 3.6 -7.8°
Drops below altitude 10° 10:47:56 10° 360° (N) 1,865 5.3 -8.7°
Sets 10:50:09 0° 4° (N) 2,761 6.1 -9.2°
